Fireball Reports

Jun 07, 2015 - Jul 08, 2015
Reports found: 678 in the last 30 days Page 1 / 14
ID UT Date & Time Local Date & Time Country City State Dur. Magn. D. Sound C. Sound Frag. Observer Exp. Level
Event 1468-2015
1468a 2015-07-06 05:00 UT 2015-07-06 01:00 EDT US Greenwich CT ≈3.5s -16 - - - Monika W 3
Event 1467-2015
1467a 2015-07-06 04:10 UT 2015-07-05 21:10 PDT US Cave Junction OR ≈1.5s -5 - - - Roger B 3
Event 1466-2015
1466a 2015-07-05 22:17 UT 2015-07-06 00:17 CEST NL Utrecht Utrecht <1s -13 - - - Laurens S 1
Event 1465-2015
1465a 2015-07-05 21:20 UT 2015-07-05 22:20 BST GB Callington England ≈7.5s -5 - - - Cathy B 3
Event 1464-2015
1464a 2015-07-05 19:37 UT 2015-07-05 21:37 CEST SK Voderady Trnavský kraj ? -9 ? ? H 3
1464b 2015-07-05 20:15 UT 2015-07-05 22:15 CEST AT Selzthal Styria ≈7.5s -27 ? ? ? Mayer N 1
Event 1463-2015
1463a 2015-07-05 19:35 UT 2015-07-05 15:35 EDT US Greenville SC ≈7.5s -8 - - - Nicholas M 1
Event 1462-2015
1462a 2015-07-05 05:06 UT 2015-07-05 02:06 ADT CA Dipper Harbour New Brunswick ≈3.5s -10 - - - Chris C 4
Event 1461-2015
1461a 2015-07-05 04:27 UT 2015-07-05 00:27 EDT US Richmond VA ≈1.5s -7 ? - ? Grace C 1
Event 1460-2015
1460a 2015-07-05 03:08 UT 2015-07-04 23:08 EDT US Buffalo NY ≈7.5s -5 - - - anthony l 1
Event 1459-2015
1459a 2015-07-05 02:11 UT 2015-07-04 22:11 EDT US Bloomfield NJ <1s -6 - - - Casey R 3
Event 1458-2015
1458a 2015-07-05 00:50 UT 2015-07-04 20:50 EDT US Mastic NY ≈7.5s -20 - - - P 2
Event 1457-2015
1457a 2015-07-04 12:25 UT 2015-07-05 00:25 NZST NZ Auckland Auckland ≈3.5s -13 - - ? Rebecca M 1
Event 1456-2015
1456a 2015-07-04 03:25 UT 2015-07-03 22:25 CDT US Valley Falls KS ≈20s -10 - - - Elizabeth T 2
Event 1455-2015
1455a 2015-07-03 20:50 UT 2015-07-03 22:50 CEST BE Berlaar Vlaams Gewest ≈20s -27 - - - Alex R 1
1455b 2015-07-03 20:50 UT 2015-07-03 22:50 CEST NL Weert Limburg ≈20s -13 - - - Patrick N 1
1455c 2015-07-03 21:50 UT 2015-07-03 23:50 CEST FR Wattrelos Nord-Pas-de-Calais ≈3.5s -5 - - Chombart S 4
Event 1454-2015
1454a 2015-07-03 06:25 UT 2015-07-02 23:25 PDT US Eastsound WA ≈3.5s -6 - - - Brannan J 2
Event 1453-2015
1453a 2015-07-03 06:01 UT 2015-07-03 01:01 CDT US Bismarck ND ≈3.5s -18 - Scott M 1
Event 1452-2015
1452a 2015-07-03 01:00 UT 2015-07-03 03:00 CEST HR Zagreb City of Zagreb ? -13 - - ? Ivan H 1
1452b 2015-07-03 01:00 UT 2015-07-03 03:00 CEST HR Zubovići Ličko-senjska županija ≈3.5s -4 - - Z 4
Event 1451-2015
1451a 2015-07-02 23:14 UT 2015-07-03 00:14 BST GB England <1s -5 - - - Anthony H 2
Event 1450-2015
1450a 2015-07-02 22:05 UT 2015-07-03 01:05 EEST RO Deva Județul Hunedoara ≈1.5s -5 - - - Jonas B 2
Event 1449-2015
1449a 2015-07-02 20:00 UT 2015-07-02 22:00 CEST NL Haren Groningen <1s -16 - - Alexandra v 1
1449b 2015-07-02 20:30 UT 2015-07-02 22:30 CEST DE <1s -22 ? ? - Marko G 2
1449c 2015-07-02 20:32 UT 2015-07-02 22:32 CEST PL Brzozówka małopolskie ≈1.5s -6 - - ? Andrzej S 4
1449d 2015-07-02 20:34 UT 2015-07-02 22:34 CEST DE Dautphetal Hessen <1s -13 - - - Dietrich S 3
Event 1448-2015
1448a 2015-07-02 17:15 UT 2015-07-02 22:45 IST IN Bhojavadar Gujarat ≈3.5s -18 - - Yash B 1
Event 1447-2015
1447a 2015-07-02 00:22 UT 2015-07-01 20:22 EDT US Williamson NY ? -18 - - ? main M 1
1447b 2015-07-02 01:15 UT 2015-07-01 21:15 EDT US Grantsville WV ≈1.5s -21 - - Bill B 4
Event 1446-2015
1446a 2015-07-01 20:30 UT 2015-07-01 22:30 CEST FR Saint-Martin-d'Hères Rhône-Alpes ≈3.5s -20 - - - Dominique D 1
Event 1444-2015
1444a 2015-07-01 22:08 UT 2015-07-02 00:08 CEST FR Dore-l'Église Auvergne ≈1.5s -27 - - CHRISTOPHE F 1
1444b 2015-07-01 22:43 UT 2015-07-02 00:43 CEST FR Clessé Bourgogne ≈3.5s -15 - - Sylvain G 2
Event 1443-2015
1443a 2015-06-30 23:45 UT 2015-06-30 23:45 ? GB Reigate ≈3.5s -5 - - Jon F 3
Event 1442-2015
1442a 2015-06-30 21:55 UT 2015-06-30 23:55 CEST FR Brulon Pays de la Loire ≈7.5s -25 - ? PAUL B 2
1442b 2015-06-30 22:35 UT 2015-07-01 00:35 CEST FR Trégueux Bretagne ≈7.5s -13 - - - anthony r 1
1442c 2015-06-30 22:35 UT 2015-07-01 00:35 CEST FR Tours Centre ≈7.5s -6 - Aurelien T 2
1442d 2015-06-30 22:40 UT 2015-07-01 00:40 CEST FR Champniers Poitou-Charentes ≈7.5s 0 - - karin v 1
1442e 2015-06-30 22:40 UT 2015-07-01 00:40 CEST FR Laval Pays de la Loire ≈1.5s -12 - - jean Louis N 3
1442f 2015-06-30 22:44 UT 2015-07-01 00:44 CEST FR Les Sorinières Pays de la Loire ≈1.5s -13 - - Al A 3
1442g 2015-06-30 22:45 UT 2015-07-01 00:45 CEST FR Pays de la Loire ≈3.5s -19 - - Philippe B 1
1442h 2015-06-30 22:48 UT 2015-07-01 00:48 CEST FR Carquefou Pays de la Loire ≈3.5s -11 - - - david a 2
1442i 2015-06-30 22:49 UT 2015-07-01 00:49 CEST FR Paris Île-de-France ≈7.5s -12 - - Xavier T 2
1442j 2015-06-30 22:50 UT 2015-07-01 00:50 CEST FR Saint-Aubin-la-Plaine Pays de la Loire ≈3.5s -19 - - ? Pascal M 1
1442k 2015-06-30 22:50 UT 2015-07-01 00:50 CEST FR Guitinières Poitou-Charentes ≈1.5s -20 - - - Mike W 3
1442l 2015-06-30 22:50 UT 2015-07-01 00:50 CEST FR Saint-Antoine-du-Rocher Centre ≈3.5s -28 - Christophe H 3
1442m 2015-06-30 22:50 UT 2015-07-01 00:50 CEST FR Chanteix Limousin ≈7.5s -8 - - Valentin V 2
1442n 2015-06-30 22:50 UT 2015-07-01 00:50 CEST FR Bretagne ≈3.5s -9 ? ? Jean philippe H 2
1442o 2015-06-30 22:50 UT 2015-07-01 00:50 CEST FR Nuillé-sur-Vicoin Pays de la Loire ≈3.5s -23 ? ? ? marie r 1
1442p 2015-06-30 22:55 UT 2015-07-01 00:55 CEST FR Paris Île-de-France ≈3.5s -26 - - - Lucas R 1